Back to catalog

DMSP 5D-2 F13 DEB

AlivePO
NORAD 40605·DEBRIS·🇺🇸 United States

Launched Mar 24, 1995 from Vandenberg Space Force Base

Loading…

Next Passes (next 24 hours)

TLE

FreshSource: Space-Track

Epoch: Sep 14, 2026, 10:16 UTC

1 40605U 95015FC  26257.42794736  .00007234  00000-0  13999-2 0  9998
2 40605  98.6202 329.7733 0015733 312.1862  47.8002 14.63577615595601

Track DMSP 5D-2 F13 DEB in real time with AllMySat

Download on the App Store